| time (UTC) | temp F | wind direction | speed MPH | gust MPH | rain 1hr in | rain 24hr in | rain mn in | humidity % | barometer mb |
| 20260504230201 | 61 | 192 | 0.0 | 5.0 | 0.00 | 0.00 | 0.00 | 76 | 1019.0 |
| 20260504224204 | 61 | 212 | 1.0 | 3.0 | 0.00 | 0.00 | 0.00 | 76 | 1019.1 |
| 20260504223202 | 61 | 212 | 1.0 | 2.0 | 0.00 | 0.00 | 0.00 | 76 | 1019.0 |
| 20260504222201 | 61 | 212 | 1.0 | 2.0 | 0.00 | 0.00 | 0.00 | 75 | 1019.1 |
| 20260504221202 | 61 | 212 | 3.0 | 4.0 | 0.00 | 0.00 | 0.00 | 75 | 1019.1 |
| 20260504220203 | 61 | 188 | 3.0 | 5.0 | 0.00 | 0.00 | 0.00 | 75 | 1019.3 |
| 20260504215156 | 61 | 205 | 3.0 | 5.0 | 0.00 | 0.00 | 0.00 | 76 | 1019.4 |
| 20260504214156 | 61 | 205 | 2.0 | 4.0 | 0.00 | 0.00 | 0.00 | 76 | 1019.5 |
| 20260504212157 | 60 | 182 | 2.0 | 5.0 | 0.00 | 0.00 | 0.00 | 76 | 1019.5 |
| 20260504211158 | 60 | 194 | 3.0 | 6.0 | 0.00 | 0.00 | 0.00 | 76 | 1019.5 |
| 20260504210159 | 61 | 202 | 1.0 | 5.0 | 0.00 | 0.00 | 0.00 | 75 | 1019.5 |
| 20260504205156 | 61 | 202 | 1.0 | 3.0 | 0.00 | 0.00 | 0.00 | 75 | 1019.5 |
| 20260504204154 | 61 | 202 | 1.0 | 3.0 | 0.00 | 0.00 | 0.00 | 75 | 1019.4 |
| 20260504203157 | 61 | 202 | 3.0 | 5.0 | 0.00 | 0.00 | 0.00 | 75 | 1019.5 |
| 20260504202156 | 61 | 225 | 2.0 | 4.0 | 0.00 | 0.00 | 0.00 | 75 | 1019.7 |
| 20260504201156 | 62 | 225 | 2.0 | 3.0 | 0.00 | 0.00 | 0.00 | 74 | 1019.8 |
| 20260504200156 | 62 | 214 | 2.0 | 4.0 | 0.00 | 0.00 | 0.00 | 74 | 1019.7 |
| 20260504194155 | 62 | 182 | 2.0 | 3.0 | 0.00 | 0.00 | 0.00 | 73 | 1019.5 |
| 20260504193158 | 63 | 267 | 2.0 | 4.0 | 0.00 | 0.00 | 0.00 | 73 | 1019.6 |
| 20260504192148 | 63 | 240 | 0.0 | 2.0 | 0.00 | 0.00 | 0.00 | 73 | 1019.5 |
| 20260504190150 | 63 | 235 | 2.0 | 4.0 | 0.00 | 0.00 | 0.00 | 73 | 1019.3 |
| 20260504185148 | 63 | 79 | 1.0 | 3.0 | 0.00 | 0.00 | 0.00 | 75 | 1019.2 |
| 20260504184148 | 64 | 79 | 0.0 | 0.0 | 0.00 | 0.00 | 0.00 | 77 | 1019.3 |
| 20260504183146 | 64 | 79 | 0.0 | 3.0 | 0.00 | 0.00 | 0.00 | 77 | 1019.2 |
| 20260504182144 | 64 | 79 | 2.0 | 4.0 | 0.00 | 0.00 | 0.00 | 77 | 1019.1 |
| 20260504181145 | 65 | 79 | 2.0 | 5.0 | 0.00 | 0.00 | 0.00 | 75 | 1019.1 |
| 20260504180142 | 65 | 79 | 1.0 | 3.0 | 0.00 | 0.00 | 0.00 | 72 | 1019.1 |
| 20260504174144 | 65 | 67 | 4.0 | 8.0 | 0.00 | 0.00 | 0.00 | 66 | 1019.1 |
| 20260504172142 | 66 | 68 | 4.0 | 9.0 | 0.00 | 0.00 | 0.00 | 59 | 1019.0 |
| 20260504171142 | 67 | 52 | 5.0 | 9.0 | 0.00 | 0.00 | 0.00 | 59 | 1018.9 |
| 20260504170144 | 67 | 78 | 5.0 | 9.0 | 0.00 | 0.00 | 0.00 | 54 | 1018.7 |
| 20260504160135 | 68 | 53 | 6.0 | 10.0 | 0.00 | 0.00 | 0.00 | 54 | 1018.6 |
| 20260504151126 | 69 | 71 | 6.0 | 12.0 | 0.00 | 0.00 | 0.00 | 58 | 1018.9 |
| 20260504150126 | 69 | 41 | 7.0 | 12.0 | 0.00 | 0.00 | 0.00 | 59 | 1019.0 |
| 20260504141120 | 69 | 86 | 7.0 | 11.0 | 0.00 | 0.00 | 0.00 | 57 | 1019.2 |
| 20260504140117 | 69 | 60 | 6.0 | 12.0 | 0.00 | 0.00 | 0.00 | 54 | 1019.3 |
| 20260504130119 | 69 | 106 | 6.0 | 11.0 | 0.00 | 0.00 | 0.00 | 55 | 1019.9 |
| 20260504120118 | 69 | 44 | 9.0 | 14.0 | 0.00 | 0.00 | 0.00 | 44 | 1020.1 |
| 20260504110118 | 70 | 55 | 7.0 | 14.0 | 0.00 | 0.00 | 0.00 | 54 | 1020.4 |
| 20260504090115 | 69 | 57 | 8.0 | 12.0 | 0.00 | 0.00 | 0.00 | 44 | 1020.9 |
| 20260504081109 | 68 | 44 | 5.0 | 10.0 | 0.00 | 0.00 | 0.00 | 60 | 1020.9 |
| 20260504080107 | 68 | 63 | 4.0 | 10.0 | 0.00 | 0.00 | 0.00 | 60 | 1020.9 |
| 20260504050107 | 56 | 198 | 1.0 | 4.0 | 0.00 | 0.00 | 0.00 | 62 | 1020.7 |
| 20260504044104 | 55 | 193 | 1.0 | 3.0 | 0.00 | 0.00 | 0.00 | 63 | 1020.5 |
| 20260504042101 | 54 | 209 | 2.0 | 4.0 | 0.00 | 0.00 | 0.00 | 64 | 1020.4 |
| 20260504041113 | 54 | 214 | 1.0 | 4.0 | 0.00 | 0.00 | 0.00 | 64 | 1020.5 |
| 20260504040100 | 55 | 195 | 1.0 | 3.0 | 0.00 | 0.00 | 0.00 | 64 | 1020.3 |
| 20260504035104 | 55 | 195 | 2.0 | 4.0 | 0.00 | 0.00 | 0.00 | 63 | 1020.3 |
| 20260504034058 | 55 | 213 | 1.0 | 4.0 | 0.00 | 0.00 | 0.00 | 63 | 1020.3 |
| 20260504032100 | 55 | 200 | 3.0 | 5.0 | 0.00 | 0.00 | 0.00 | 63 | 1020.3 |
| 20260504031058 | 55 | 186 | 3.0 | 5.0 | 0.00 | 0.00 | 0.00 | 63 | 1020.4 |
| 20260504030100 | 55 | 185 | 3.0 | 6.0 | 0.00 | 0.00 | 0.00 | 63 | 1020.3 |
| 20260504025058 | 54 | 188 | 2.0 | 4.0 | 0.00 | 0.00 | 0.00 | 65 | 1020.5 |
| 20260504024058 | 54 | 181 | 3.0 | 6.0 | 0.00 | 0.00 | 0.00 | 64 | 1020.6 |
| 20260504023100 | 54 | 192 | 3.0 | 5.0 | 0.00 | 0.00 | 0.00 | 65 | 1020.6 |
| 20260504022059 | 54 | 192 | 3.0 | 5.0 | 0.00 | 0.00 | 0.00 | 65 | 1020.6 |
| 20260504021104 | 54 | 186 | 2.0 | 4.0 | 0.00 | 0.00 | 0.00 | 65 | 1020.6 |
| 20260504020059 | 54 | 223 | 2.0 | 4.0 | 0.00 | 0.00 | 0.00 | 65 | 1020.5 |
| 20260504015058 | 55 | 200 | 3.0 | 5.0 | 0.00 | 0.00 | 0.00 | 66 | 1020.4 |
| 20260504014058 | 55 | 213 | 3.0 | 6.0 | 0.00 | 0.00 | 0.00 | 67 | 1020.3 |
| 20260504013056 | 55 | 228 | 1.0 | 3.0 | 0.00 | 0.00 | 0.00 | 67 | 1020.2 |
| 20260504012056 | 55 | 153 | 1.0 | 2.0 | 0.00 | 0.00 | 0.00 | 66 | 1020.3 |
| 20260504011056 | 55 | 153 | 3.0 | 5.0 | 0.00 | 0.00 | 0.00 | 67 | 1020.3 |
| 20260504010053 | 55 | 182 | 2.0 | 5.0 | 0.00 | 0.00 | 0.00 | 66 | 1020.5 |
| 20260504005053 | 56 | 184 | 1.0 | 3.0 | 0.00 | 0.00 | 0.00 | 67 | 1020.6 |
| 20260504004050 | 56 | 180 | 1.0 | 5.0 | 0.00 | 0.00 | 0.00 | 66 | 1020.6 |
| 20260504003051 | 56 | 184 | 3.0 | 5.0 | 0.00 | 0.00 | 0.00 | 66 | 1020.6 |
| 20260504002049 | 56 | 193 | 4.0 | 6.0 | 0.00 | 0.00 | 0.00 | 65 | 1020.7 |
| 20260504001050 | 56 | 203 | 4.0 | 6.0 | 0.00 | 0.00 | 0.00 | 65 | 1020.7 |
| 20260504000052 | 56 | 194 | 3.0 | 4.0 | 0.00 | 0.00 | 0.00 | 66 | 1020.7 |
| 20260503235050 | 57 | 186 | 2.0 | 5.0 | 0.00 | 0.00 | 0.00 | 65 | 1020.9 |
| 20260503234050 | 57 | 218 | 2.0 | 5.0 | 0.00 | 0.00 | 0.00 | 66 | 1021.0 |
| 20260503233049 | 57 | 201 | 2.0 | 5.0 | 0.00 | 0.00 | 0.00 | 65 | 1021.0 |
| 20260503232050 | 57 | 205 | 3.0 | 6.0 | 0.00 | 0.00 | 0.00 | 66 | 1021.1 |